contact:dominique.lefevre@mio.osupytheas.fr, maurice.libes@osupytheas.fr, didier.mallarino@osupytheas.fr
Project:EMSO http://www.emso-fr.org/EMSO-France
Depth: 2436.0 m
Title:EMSO Ligure Ouest : Data MII capteur AQUADOPP
Date,Latitude,Longitude,X_East,Y_North,Z_Up,Amplitude_X,Amplitude_Y,Amplitude_Z,Batterie,SoundSpeed,Heading,Pitch,Roll,Pressure,TIS,Speed,Direction
, degrees North, degrees East, m.s-1, m.s-1,m.s-1, 1, 1, 1, Volt, m.s-1, degree, degree, degree, dbar, degree_C, m.s-1, degree
2022-12-12T00:04:03,42.805,6.029,-0.035,0.008,-0.032,101.0,101.0,100.0,13.4,1505.2,322.9,-0.8,1.8,2471.174,13.29,0.035,282.9
2022-12-12T00:07:03,42.805,6.029,-0.016,0.013,-0.031,100.0,101.0,101.0,13.4,1505.2,319.6,-0.8,1.8,2471.205,13.29,0.02,309.1
2022-12-12T00:10:03,42.805,6.029,-0.023,0.006,-0.042,101.0,101.0,101.0,13.4,1505.2,322.2,-0.7,1.8,2471.183,13.29,0.023,284.6
2022-12-12T00:13:03,42.805,6.029,-0.006,0.012,-0.038,102.0,102.0,100.0,13.4,1505.2,318.0,-0.8,1.8,2471.176,13.29,0.013,333.4
2022-12-12T00:16:03,42.805,6.029,-0.034,0.005,-0.036,99.0,101.0,100.0,13.3,1505.2,321.5,-0.7,1.8,2471.147,13.29,0.034,278.4
2022-12-12T00:19:03,42.805,6.029,0.008,0.0,-0.012,100.0,101.0,100.0,13.4,1505.2,317.0,-0.8,1.8,2471.143,13.29,0.008,90.0
2022-12-12T00:22:03,42.805,6.029,-0.042,0.004,-0.055,100.0,101.0,100.0,13.4,1505.2,316.9,-0.7,1.8,2471.169,13.29,0.042,275.4
2022-12-12T00:25:03,42.805,6.029,-0.047,0.01,-0.027,102.0,100.0,100.0,13.3,1505.2,323.5,-0.8,1.8,2471.148,13.29,0.048,282.0
2022-12-12T00:28:03,42.805,6.029,-0.008,0.002,-0.047,101.0,101.0,100.0,13.3,1505.2,321.5,-0.8,1.8,2471.147,13.29,0.008,284.0
2022-12-12T00:31:03,42.805,6.029,-0.014,0.02,-0.014,100.0,101.0,101.0,13.4,1505.2,334.9,-0.8,1.8,2471.137,13.29,0.024,325.0
2022-12-12T00:34:03,42.805,6.029,0.0,0.009,-0.02,100.0,101.0,101.0,13.4,1505.2,330.6,-0.8,1.8,2471.128,13.29,0.009,0.0
2022-12-12T00:37:03,42.805,6.029,-0.002,0.013,-0.037,102.0,100.0,100.0,13.3,1505.2,327.6,-0.8,1.8,2471.095,13.29,0.013,351.3
2022-12-12T00:40:03,42.805,6.029,-0.022,0.016,-0.007,100.0,100.0,101.0,13.4,1505.2,319.0,-0.7,1.8,2471.181,13.29,0.027,306.0
2022-12-12T00:43:03,42.805,6.029,-0.019,0.025,-0.012,100.0,99.0,101.0,13.3,1505.2,325.6,-0.8,1.8,2471.125,13.29,0.031,322.8
2022-12-12T00:46:03,42.805,6.029,-0.036,0.024,0.002,101.0,100.0,100.0,13.4,1505.2,326.7,-0.8,1.8,2471.131,13.29,0.043,303.7
2022-12-12T00:49:03,42.805,6.029,-0.038,0.022,-0.062,101.0,100.0,101.0,13.4,1505.2,332.7,-0.7,1.8,2471.157,13.29,0.043,300.1
2022-12-12T00:52:03,42.805,6.029,-0.009,0.002,-0.04,100.0,101.0,100.0,13.4,1505.2,329.0,-0.8,1.9,2471.145,13.29,0.009,282.5
2022-12-12T00:55:03,42.805,6.029,-0.008,0.001,-0.028,100.0,102.0,100.0,13.4,1505.2,328.8,-0.8,1.8,2471.126,13.29,0.008,277.1
2022-12-12T00:58:03,42.805,6.029,-0.022,0.014,-0.024,101.0,100.0,102.0,13.4,1505.2,331.5,-0.8,1.8,2471.119,13.29,0.026,302.5
2022-12-12T01:04:03,42.805,6.029,-0.015,0.042,0.03,102.0,103.0,102.0,13.4,1505.2,317.0,-0.8,1.8,2471.144,13.28,0.044,340.4
2022-12-12T01:07:03,42.805,6.029,-0.01,-0.002,-0.042,102.0,102.0,101.0,13.4,1505.2,326.7,-0.8,1.8,2471.127,13.29,0.01,258.7
2022-12-12T01:10:03,42.805,6.029,-0.047,0.028,-0.023,101.0,101.0,100.0,13.4,1505.2,328.3,-0.7,1.8,2471.149,13.29,0.054,300.8
2022-12-12T01:13:03,42.805,6.029,0.0,0.009,0.007,101.0,100.0,101.0,13.4,1505.2,331.0,-0.8,1.8,2471.154,13.29,0.009,0.0
2022-12-12T01:16:03,42.805,6.029,-0.009,-0.005,-0.069,101.0,101.0,100.0,13.3,1505.2,327.5,-0.8,1.8,2471.119,13.29,0.01,240.9
2022-12-12T01:19:03,42.805,6.029,-0.025,-0.018,-0.067,102.0,101.0,99.0,13.4,1505.2,320.1,-0.7,1.8,2471.122,13.29,0.03,234.2
2022-12-12T01:22:03,42.805,6.029,-0.027,0.012,-0.018,100.0,100.0,101.0,13.3,1505.2,327.9,-0.8,1.8,2471.151,13.29,0.029,294.0
2022-12-12T01:25:03,42.805,6.029,-0.019,0.002,-0.034,100.0,101.0,100.0,13.4,1505.2,322.4,-0.8,1.8,2471.137,13.29,0.019,276.0
2022-12-12T01:28:03,42.805,6.029,-0.024,0.003,-0.028,101.0,100.0,101.0,13.4,1505.2,330.6,-0.8,1.8,2471.093,13.29,0.024,277.1
2022-12-12T01:31:03,42.805,6.029,-0.017,0.011,-0.024,100.0,100.0,100.0,13.3,1505.2,325.6,-0.8,1.8,2471.069,13.29,0.02,302.9
2022-12-12T01:34:03,42.805,6.029,-0.014,0.015,-0.028,99.0,101.0,99.0,13.3,1505.2,327.6,-0.7,1.8,2471.134,13.29,0.02,317.0
2022-12-12T01:37:03,42.805,6.029,-0.012,0.011,-0.03,100.0,100.0,100.0,13.3,1505.2,327.2,-0.7,1.8,2471.1,13.29,0.016,312.5
2022-12-12T01:40:03,42.805,6.029,-0.029,0.017,-0.05,101.0,100.0,100.0,13.4,1505.2,320.6,-0.7,1.8,2471.101,13.29,0.033,300.4
2022-12-12T01:43:03,42.805,6.029,-0.007,0.009,-0.021,101.0,102.0,99.0,13.3,1505.2,333.0,-0.8,1.8,2471.117,13.29,0.011,322.1
2022-12-12T01:46:03,42.805,6.029,-0.017,0.017,-0.022,101.0,100.0,100.0,13.3,1505.2,325.7,-0.8,1.8,2471.092,13.29,0.024,315.0
2022-12-12T01:49:03,42.805,6.029,-0.016,0.009,-0.017,102.0,100.0,100.0,13.4,1505.2,326.3,-0.8,1.8,2471.115,13.29,0.018,299.4
2022-12-12T01:52:03,42.805,6.029,-0.003,-0.012,-0.07,100.0,101.0,99.0,13.4,1505.2,336.8,-0.8,1.8,2471.114,13.29,0.012,194.0
2022-12-12T01:55:03,42.805,6.029,-0.023,-0.001,-0.045,101.0,99.0,100.0,13.4,1505.2,328.3,-0.7,1.8,2471.122,13.29,0.023,267.5
2022-12-12T01:58:03,42.805,6.029,-0.005,-0.003,-0.026,101.0,101.0,100.0,13.4,1505.2,316.9,-0.8,1.8,2471.107,13.29,0.005,239.0
2022-12-12T02:04:03,42.805,6.029,-0.005,0.005,-0.056,101.0,100.0,100.0,13.4,1505.2,323.7,-0.8,1.8,2471.105,13.29,0.007,315.0
2022-12-12T02:07:03,42.805,6.029,-0.03,0.017,-0.046,101.0,101.0,101.0,13.4,1505.2,323.1,-0.8,1.8,2471.139,13.29,0.034,299.5
2022-12-12T02:10:03,42.805,6.029,0.002,0.003,-0.042,101.0,101.0,100.0,13.3,1505.2,325.3,-0.8,1.8,2471.115,13.29,0.003,33.7
2022-12-12T02:13:03,42.805,6.029,-0.018,0.004,-0.011,101.0,101.0,100.0,13.3,1505.2,319.0,-0.7,1.8,2471.101,13.29,0.018,282.5
2022-12-12T02:16:03,42.805,6.029,-0.003,0.017,-0.006,101.0,102.0,99.0,13.4,1505.2,327.4,-0.7,1.8,2471.114,13.29,0.017,350.0
2022-12-12T02:19:03,42.805,6.029,-0.029,0.015,-0.017,101.0,100.0,101.0,13.4,1505.2,329.8,-0.7,1.8,2471.131,13.29,0.032,297.4
2022-12-12T02:22:03,42.805,6.029,-0.01,-0.014,-0.034,99.0,100.0,101.0,13.4,1505.2,321.6,-0.8,1.8,2471.086,13.29,0.017,215.5
2022-12-12T02:25:03,42.805,6.029,-0.026,0.021,-0.004,100.0,100.0,100.0,13.3,1505.2,321.5,-0.8,1.8,2471.105,13.29,0.033,308.9
2022-12-12T02:28:03,42.805,6.029,-0.013,0.014,-0.006,101.0,100.0,100.0,13.4,1505.2,316.0,-0.7,1.8,2471.107,13.29,0.019,317.1
2022-12-12T02:31:03,42.805,6.029,-0.031,0.016,-0.01,100.0,101.0,101.0,13.4,1505.2,334.8,-0.8,1.8,2471.108,13.29,0.034,297.3
2022-12-12T02:34:03,42.805,6.029,-0.015,0.008,-0.024,101.0,101.0,100.0,13.4,1505.2,323.7,-0.7,1.8,2471.107,13.29,0.017,298.1
2022-12-12T02:37:03,42.805,6.029,-0.033,0.036,0.007,101.0,100.0,100.0,13.4,1505.2,328.4,-0.7,1.8,2471.089,13.29,0.048,317.5
2022-12-12T02:40:03,42.805,6.029,-0.016,0.0,-0.031,100.0,101.0,100.0,13.4,1505.2,323.4,-0.8,1.8,2471.087,13.29,0.016,270.0
2022-12-12T02:43:03,42.805,6.029,0.005,0.014,0.007,99.0,100.0,103.0,13.3,1505.2,328.7,-0.8,1.8,2471.094,13.29,0.014,19.6
2022-12-12T02:46:03,42.805,6.029,0.021,-0.01,-0.027,99.0,101.0,102.0,13.3,1505.2,323.6,-0.8,1.8,2471.072,13.29,0.023,115.5
2022-12-12T02:49:03,42.805,6.029,0.0,-0.012,-0.07,101.0,100.0,100.0,13.3,1505.2,318.7,-0.8,1.8,2471.064,13.29,0.012,180.0
2022-12-12T02:52:03,42.805,6.029,-0.044,0.014,-0.018,101.0,100.0,100.0,13.4,1505.2,323.7,-0.8,1.8,2471.077,13.29,0.046,287.6
2022-12-12T02:55:03,42.805,6.029,-0.033,0.018,-0.004,100.0,101.0,100.0,13.3,1505.2,327.4,-0.7,1.8,2471.091,13.29,0.037,298.6
2022-12-12T02:58:03,42.805,6.029,0.006,-0.015,-0.04,99.0,99.0,101.0,13.4,1505.2,321.1,-0.8,1.8,2471.056,13.29,0.016,158.2
2022-12-12T03:04:03,42.805,6.029,-0.005,0.003,-0.029,99.0,101.0,101.0,13.3,1505.2,326.7,-0.8,1.8,2471.089,13.29,0.005,301.0
2022-12-12T03:07:03,42.805,6.029,-0.008,-0.006,-0.012,101.0,100.0,100.0,13.4,1505.2,323.6,-0.8,1.8,2471.09,13.29,0.01,233.1
2022-12-12T03:10:03,42.805,6.029,-0.019,-0.008,-0.045,101.0,101.0,100.0,13.4,1505.2,319.4,-0.8,1.8,2471.072,13.29,0.02,247.2
2022-12-12T03:13:03,42.805,6.029,-0.014,0.013,-0.002,100.0,101.0,100.0,13.3,1505.2,326.6,-0.8,1.8,2471.085,13.29,0.019,312.9
2022-12-12T03:16:03,42.805,6.029,-0.027,0.005,-0.035,101.0,100.0,101.0,13.4,1505.2,322.6,-0.8,1.8,2471.033,13.29,0.027,280.5
2022-12-12T03:19:03,42.805,6.029,-0.032,-0.003,-0.024,101.0,100.0,100.0,13.3,1505.2,328.4,-0.7,1.8,2471.044,13.29,0.032,264.6
2022-12-12T03:22:03,42.805,6.029,-0.019,0.015,-0.007,100.0,101.0,100.0,13.4,1505.2,333.7,-0.7,1.8,2471.035,13.29,0.024,308.3
2022-12-12T03:25:03,42.805,6.029,-0.035,0.005,-0.037,99.0,102.0,101.0,13.3,1505.2,325.1,-0.8,1.8,2471.036,13.29,0.035,278.1
2022-12-12T03:28:03,42.805,6.029,0.001,0.016,0.019,100.0,100.0,100.0,13.4,1505.2,318.8,-0.8,1.8,2471.059,13.29,0.016,3.6
2022-12-12T03:31:03,42.805,6.029,-0.005,0.007,-0.025,100.0,100.0,100.0,13.4,1505.2,322.9,-0.8,1.8,2471.058,13.29,0.008,324.5
2022-12-12T03:34:03,42.805,6.029,-0.008,0.012,-0.029,100.0,102.0,101.0,13.3,1505.2,336.1,-0.7,1.8,2471.078,13.29,0.014,326.3
2022-12-12T03:37:03,42.805,6.029,-0.042,0.0,-0.061,101.0,99.0,101.0,13.4,1505.2,321.6,-0.7,1.8,2471.015,13.29,0.042,270.0
2022-12-12T03:40:03,42.805,6.029,-0.017,0.008,-0.022,100.0,100.0,101.0,13.4,1505.2,338.2,-0.8,1.8,2471.025,13.29,0.018,295.2
2022-12-12T03:43:03,42.805,6.029,-0.026,0.03,0.007,100.0,100.0,100.0,13.3,1505.2,331.3,-0.8,1.8,2471.012,13.29,0.039,319.1
2022-12-12T03:46:03,42.805,6.029,-0.012,0.001,-0.027,100.0,102.0,100.0,13.4,1505.2,317.4,-0.8,1.8,2471.018,13.29,0.012,274.8
2022-12-12T03:49:03,42.805,6.029,-0.042,0.035,-0.002,100.0,100.0,100.0,13.3,1505.2,333.4,-0.8,1.8,2471.037,13.29,0.054,309.8
2022-12-12T03:52:03,42.805,6.029,-0.001,0.018,0.009,101.0,102.0,100.0,13.4,1505.2,329.7,-0.8,1.8,2471.026,13.29,0.018,356.8
2022-12-12T03:55:03,42.805,6.029,-0.031,0.002,-0.041,100.0,101.0,101.0,13.3,1505.2,326.7,-0.8,1.8,2471.059,13.29,0.031,273.7
2022-12-12T03:58:03,42.805,6.029,-0.032,0.009,-0.027,100.0,101.0,100.0,13.3,1505.2,318.1,-0.7,1.8,2471.049,13.29,0.033,285.7
2022-12-12T04:04:03,42.805,6.029,-0.011,0.014,-0.019,101.0,100.0,101.0,13.4,1505.2,322.5,-0.8,1.8,2471.088,13.29,0.017,321.8
2022-12-12T04:07:03,42.805,6.029,-0.015,0.015,-0.028,100.0,101.0,100.0,13.4,1505.2,331.1,-0.8,1.8,2471.055,13.29,0.021,315.0
2022-12-12T04:10:03,42.805,6.029,-0.013,-0.011,-0.031,100.0,101.0,100.0,13.4,1505.2,318.6,-0.8,1.8,2471.072,13.29,0.017,229.8
2022-12-12T04:13:03,42.805,6.029,-0.042,0.02,-0.013,102.0,100.0,102.0,13.4,1505.2,317.8,-0.7,1.8,2471.079,13.29,0.046,295.5
2022-12-12T04:16:03,42.805,6.029,0.019,-0.011,0.007,101.0,100.0,100.0,13.4,1505.2,334.5,-0.8,1.8,2471.058,13.29,0.021,120.1
2022-12-12T04:19:03,42.805,6.029,-0.024,0.007,-0.029,100.0,101.0,100.0,13.3,1505.2,323.1,-0.8,1.8,2471.044,13.29,0.025,286.3
2022-12-12T04:22:03,42.805,6.029,0.0,0.003,0.013,101.0,102.0,101.0,13.4,1505.2,317.6,-0.8,1.8,2471.045,13.29,0.003,0.0
2022-12-12T04:25:03,42.805,6.029,-0.018,0.01,-0.026,100.0,100.0,101.0,13.4,1505.2,323.2,-0.8,1.8,2471.037,13.29,0.02,299.1
2022-12-12T04:28:03,42.805,6.029,-0.036,0.025,-0.027,100.0,100.0,100.0,13.4,1505.2,320.2,-0.8,1.8,2471.057,13.29,0.043,304.8
2022-12-12T04:31:03,42.805,6.029,-0.019,0.014,0.005,100.0,100.0,100.0,13.4,1505.2,316.4,-0.8,1.8,2471.019,13.29,0.023,306.4
2022-12-12T04:34:03,42.805,6.029,-0.027,0.015,-0.011,100.0,101.0,101.0,13.4,1505.2,321.6,-0.8,1.8,2471.052,13.29,0.03,299.1
2022-12-12T04:37:03,42.805,6.029,-0.012,0.013,-0.035,100.0,101.0,101.0,13.4,1505.2,330.9,-0.7,1.9,2471.055,13.29,0.017,317.3
2022-12-12T04:40:03,42.805,6.029,0.011,0.024,0.017,100.0,100.0,100.0,13.3,1505.2,329.3,-0.8,1.8,2471.035,13.29,0.026,24.6
2022-12-12T04:43:03,42.805,6.029,-0.022,-0.003,-0.045,101.0,102.0,99.0,13.4,1505.2,323.4,-0.8,1.8,2471.042,13.29,0.022,262.2
2022-12-12T04:46:03,42.805,6.029,-0.016,0.031,0.009,100.0,99.0,101.0,13.4,1505.2,318.7,-0.8,1.8,2471.012,13.29,0.034,332.7
2022-12-12T04:49:03,42.805,6.029,-0.032,0.026,0.011,101.0,100.0,100.0,13.4,1505.2,315.9,-0.8,1.8,2471.049,13.29,0.041,309.1
2022-12-12T04:52:03,42.805,6.029,-0.009,0.011,-0.033,100.0,100.0,100.0,13.4,1505.2,328.1,-0.8,1.8,2471.077,13.29,0.014,320.7
2022-12-12T04:55:03,42.805,6.029,-0.008,-0.008,-0.051,101.0,100.0,100.0,13.4,1505.2,327.7,-0.7,1.8,2471.083,13.29,0.011,225.0
2022-12-12T04:58:03,42.805,6.029,-0.034,0.003,-0.035,100.0,100.0,100.0,13.3,1505.2,329.0,-0.8,1.8,2471.061,13.29,0.034,275.0
2022-12-12T05:04:03,42.805,6.029,-0.004,0.015,-0.017,100.0,101.0,101.0,13.4,1505.2,327.4,-0.7,1.8,2471.098,13.29,0.015,345.1
2022-12-12T05:07:03,42.805,6.029,0.004,0.01,-0.004,100.0,101.0,101.0,13.3,1505.2,327.9,-0.8,1.8,2471.099,13.29,0.01,21.8
2022-12-12T05:10:03,42.805,6.029,-0.009,0.014,-0.018,101.0,100.0,101.0,13.4,1505.2,327.5,-0.8,1.8,2471.086,13.29,0.016,327.3
2022-12-12T05:13:03,42.805,6.029,-0.008,0.01,-0.019,100.0,101.0,101.0,13.4,1505.2,320.2,-0.8,1.8,2471.086,13.29,0.012,321.3
2022-12-12T05:16:03,42.805,6.029,-0.006,0.012,-0.008,101.0,100.0,100.0,13.3,1505.2,323.8,-0.7,1.8,2471.071,13.29,0.013,333.4
2022-12-12T05:19:03,42.805,6.029,-0.014,0.0,-0.021,101.0,100.0,100.0,13.4,1505.2,322.1,-0.8,1.8,2471.098,13.29,0.014,270.0
2022-12-12T05:22:03,42.805,6.029,-0.021,0.033,0.013,100.0,100.0,101.0,13.3,1505.2,326.0,-0.8,1.8,2471.106,13.29,0.039,327.5
2022-12-12T05:25:03,42.805,6.029,-0.013,0.004,-0.033,101.0,101.0,100.0,13.3,1505.2,318.1,-0.8,1.8,2471.074,13.29,0.013,287.1
2022-12-12T05:28:03,42.805,6.029,-0.018,0.0,-0.001,100.0,100.0,101.0,13.3,1505.2,321.2,-0.8,1.8,2471.053,13.29,0.018,270.0
2022-12-12T05:31:03,42.805,6.029,-0.01,0.0,-0.027,101.0,100.0,101.0,13.4,1505.2,330.0,-0.7,1.8,2471.066,13.29,0.01,270.0
2022-12-12T05:34:03,42.805,6.029,-0.021,0.022,-0.023,100.0,100.0,101.0,13.4,1505.2,332.3,-0.7,1.8,2471.089,13.29,0.03,316.3
2022-12-12T05:37:03,42.805,6.029,0.007,0.011,-0.011,100.0,101.0,101.0,13.3,1505.2,326.7,-0.8,1.8,2471.095,13.29,0.013,32.5
2022-12-12T05:40:03,42.805,6.029,-0.023,0.001,-0.041,101.0,100.0,100.0,13.4,1505.2,319.8,-0.8,1.8,2471.083,13.29,0.023,272.5
2022-12-12T05:43:03,42.805,6.029,-0.027,0.022,-0.01,101.0,102.0,100.0,13.4,1505.2,334.1,-0.7,1.9,2471.105,13.29,0.034,309.2
2022-12-12T05:46:03,42.805,6.029,0.003,-0.008,-0.039,101.0,100.0,100.0,13.4,1505.2,329.1,-0.7,1.8,2471.069,13.29,0.008,159.4
2022-12-12T05:49:03,42.805,6.029,-0.019,0.013,-0.036,101.0,101.0,100.0,13.3,1505.2,324.0,-0.8,1.8,2471.112,13.29,0.023,304.4
2022-12-12T05:52:03,42.805,6.029,-0.026,0.037,0.007,101.0,101.0,101.0,13.4,1505.2,329.2,-0.8,1.8,2471.114,13.29,0.045,324.9
2022-12-12T05:55:03,42.805,6.029,-0.013,0.01,-0.03,101.0,100.0,100.0,13.3,1505.2,331.0,-0.8,1.8,2471.082,13.29,0.016,307.6
2022-12-12T05:58:03,42.805,6.029,-0.019,-0.002,-0.022,101.0,101.0,100.0,13.4,1505.2,324.2,-0.8,1.8,2471.087,13.29,0.019,264.0
2022-12-12T06:04:03,42.805,6.029,0.002,0.005,-0.016,99.0,101.0,100.0,13.3,1505.2,327.2,-0.8,1.8,2471.152,13.29,0.005,21.8
2022-12-12T06:07:03,42.805,6.029,-0.023,0.011,-0.033,101.0,101.0,100.0,13.3,1505.2,328.6,-0.8,1.8,2471.143,13.29,0.025,295.6
2022-12-12T06:10:03,42.805,6.029,-0.043,0.021,-0.046,100.0,101.0,101.0,13.3,1505.2,333.4,-0.7,1.9,2471.129,13.29,0.047,296.0
2022-12-12T06:13:03,42.805,6.029,-0.013,0.027,-0.018,101.0,101.0,100.0,13.4,1505.2,323.7,-0.7,1.8,2471.129,13.29,0.029,334.3
2022-12-12T06:16:03,42.805,6.029,-0.015,-0.002,-0.047,101.0,101.0,100.0,13.4,1505.2,336.0,-0.7,1.8,2471.169,13.29,0.015,262.4
2022-12-12T06:19:03,42.805,6.029,-0.02,0.006,-0.011,101.0,101.0,100.0,13.3,1505.2,327.4,-0.8,1.8,2471.157,13.29,0.02,286.7
2022-12-12T06:22:03,42.805,6.029,-0.017,0.009,-0.053,100.0,100.0,101.0,13.3,1505.2,321.1,-0.8,1.8,2471.121,13.29,0.019,297.9
2022-12-12T06:25:03,42.805,6.029,0.01,-0.013,-0.035,100.0,101.0,100.0,13.3,1505.2,321.8,-0.8,1.8,2471.117,13.29,0.016,142.4
2022-12-12T06:28:03,42.805,6.029,-0.012,0.002,-0.024,101.0,101.0,101.0,13.3,1505.2,326.0,-0.8,1.7,2471.135,13.29,0.012,279.5
2022-12-12T06:31:03,42.805,6.029,-0.018,0.012,-0.013,100.0,101.0,100.0,13.4,1505.2,328.3,-0.8,1.8,2471.15,13.29,0.021,303.7
2022-12-12T06:34:03,42.805,6.029,-0.025,-0.005,-0.041,101.0,100.0,100.0,13.3,1505.2,326.5,-0.8,1.8,2471.098,13.29,0.025,258.7
2022-12-12T06:37:03,42.805,6.029,-0.006,-0.016,-0.062,101.0,101.0,101.0,13.4,1505.2,326.3,-0.7,1.8,2471.124,13.29,0.017,200.6
2022-12-12T06:40:03,42.805,6.029,-0.016,0.003,-0.038,101.0,101.0,100.0,13.4,1505.2,318.1,-0.7,1.8,2471.145,13.29,0.016,280.6
2022-12-12T06:43:03,42.805,6.029,-0.003,-0.007,-0.036,102.0,101.0,101.0,13.3,1505.2,332.6,-0.8,1.8,2471.138,13.29,0.007,203.2
2022-12-12T06:46:03,42.805,6.029,-0.01,0.0,-0.02,100.0,101.0,101.0,13.4,1505.2,318.1,-0.7,1.8,2471.129,13.29,0.01,270.0
2022-12-12T06:49:03,42.805,6.029,-0.017,-0.004,-0.031,100.0,100.0,101.0,13.4,1505.2,332.3,-0.8,1.8,2471.137,13.29,0.017,256.8
2022-12-12T06:52:03,42.805,6.029,0.001,-0.006,-0.007,101.0,101.0,101.0,13.3,1505.2,316.5,-0.8,1.8,2471.138,13.29,0.006,170.5
2022-12-12T06:55:03,42.805,6.029,0.002,0.007,-0.025,101.0,100.0,100.0,13.4,1505.2,330.6,-0.8,1.8,2471.174,13.29,0.007,15.9
2022-12-12T06:58:07,42.805,6.029,-0.009,-0.013,-0.039,101.0,100.0,101.0,13.4,1505.2,329.2,-0.7,1.8,2471.088,13.29,0.015,214.7
2022-12-12T07:04:03,42.805,6.029,-0.016,0.023,-0.001,100.0,100.0,101.0,13.3,1505.2,321.5,-0.8,1.8,2471.202,13.29,0.028,325.2
2022-12-12T07:07:03,42.805,6.029,0.0,0.03,0.004,101.0,101.0,100.0,13.4,1505.2,330.6,-0.7,1.8,2471.196,13.29,0.03,0.0
2022-12-12T07:10:03,42.805,6.029,-0.001,0.004,-0.036,101.0,100.0,101.0,13.4,1505.2,328.9,-0.7,1.8,2471.211,13.29,0.004,346.0
2022-12-12T07:13:03,42.805,6.029,-0.046,0.026,-0.015,100.0,102.0,101.0,13.4,1505.2,322.2,-0.8,1.8,2471.2,13.29,0.052,299.5
2022-12-12T07:16:03,42.805,6.029,-0.044,0.021,-0.052,101.0,101.0,100.0,13.3,1505.2,328.2,-0.8,1.8,2471.181,13.29,0.048,295.5
2022-12-12T07:19:03,42.805,6.029,-0.01,0.024,0.006,101.0,101.0,101.0,13.4,1505.2,318.6,-0.7,1.8,2471.155,13.29,0.026,337.4
2022-12-12T07:22:03,42.805,6.029,-0.029,0.007,-0.021,100.0,100.0,100.0,13.4,1505.2,322.6,-0.8,1.8,2471.187,13.29,0.029,283.6
2022-12-12T07:25:03,42.805,6.029,-0.019,0.012,0.001,101.0,101.0,100.0,13.4,1505.2,320.0,-0.8,1.8,2471.16,13.29,0.022,302.3
2022-12-12T07:28:03,42.805,6.029,-0.02,0.019,0.028,100.0,100.0,101.0,13.3,1505.2,326.1,-0.7,1.8,2471.188,13.29,0.027,313.5
2022-12-12T07:31:03,42.805,6.029,-0.022,0.009,-0.041,100.0,100.0,101.0,13.4,1505.2,323.1,-0.7,1.8,2471.204,13.29,0.023,292.2
2022-12-12T07:34:03,42.805,6.029,-0.022,-0.004,-0.031,100.0,101.0,100.0,13.4,1505.2,318.8,-0.8,1.9,2471.189,13.29,0.022,259.7
2022-12-12T07:37:03,42.805,6.029,-0.022,0.03,-0.007,101.0,103.0,101.0,13.4,1505.2,337.1,-0.8,1.9,2471.164,13.29,0.037,323.7
2022-12-12T07:40:03,42.805,6.029,-0.02,0.008,-0.032,101.0,102.0,100.0,13.4,1505.2,322.6,-0.8,1.8,2471.209,13.29,0.021,291.8
2022-12-12T07:43:03,42.805,6.029,-0.041,0.031,-0.015,100.0,100.0,101.0,13.4,1505.2,334.8,-0.7,1.8,2471.168,13.29,0.051,307.1
2022-12-12T07:46:03,42.805,6.029,-0.033,0.002,-0.038,101.0,101.0,101.0,13.4,1505.2,327.1,-0.7,1.8,2471.182,13.29,0.033,273.5
2022-12-12T07:49:03,42.805,6.029,-0.029,0.008,-0.003,101.0,100.0,101.0,13.3,1505.2,325.4,-0.8,1.8,2471.202,13.29,0.03,285.4
2022-12-12T07:52:03,42.805,6.029,-0.008,0.012,-0.003,100.0,100.0,100.0,13.4,1505.2,320.6,-0.8,1.8,2471.202,13.29,0.014,326.3
2022-12-12T07:55:03,42.805,6.029,-0.029,0.014,-0.027,101.0,101.0,101.0,13.4,1505.2,329.7,-0.8,1.8,2471.217,13.29,0.032,295.8
2022-12-12T07:58:04,42.805,6.029,-0.036,0.023,-0.034,101.0,101.0,100.0,13.4,1505.2,324.2,-0.7,1.8,2471.214,13.29,0.042,302.6
2022-12-12T08:04:03,42.805,6.029,-0.015,0.013,0.003,103.0,100.0,101.0,13.3,1505.2,325.4,-0.7,1.8,2471.239,13.29,0.019,310.9
2022-12-12T08:07:03,42.805,6.029,-0.017,0.009,-0.056,101.0,100.0,101.0,13.4,1505.2,331.6,-0.8,1.8,2471.235,13.29,0.019,297.9
2022-12-12T08:10:03,42.805,6.029,-0.043,0.026,-0.011,102.0,101.0,101.0,13.4,1505.2,322.0,-0.8,1.8,2471.191,13.29,0.05,301.2
2022-12-12T08:13:05,42.805,6.029,0.01,-0.013,-0.062,100.0,101.0,100.0,13.4,1505.2,327.3,-0.8,1.8,2471.234,13.29,0.016,142.4
2022-12-12T08:16:03,42.805,6.029,-0.021,0.022,0.005,100.0,101.0,101.0,13.4,1505.2,319.6,-0.7,1.8,2471.242,13.29,0.03,316.3
2022-12-12T08:19:03,42.805,6.029,-0.036,-0.011,-0.061,100.0,100.0,101.0,13.4,1505.2,322.1,-0.8,1.9,2471.274,13.29,0.037,253.0
2022-12-12T08:22:03,42.805,6.029,-0.018,0.007,-0.009,99.0,101.0,100.0,13.4,1505.2,324.7,-0.7,1.8,2471.244,13.29,0.019,291.2
2022-12-12T08:25:03,42.805,6.029,0.0,0.006,-0.027,100.0,101.0,100.0,13.3,1505.2,325.7,-0.8,1.9,2471.209,13.29,0.006,0.0
2022-12-12T08:28:06,42.805,6.029,-0.003,-0.004,-0.077,101.0,101.0,99.0,13.3,1505.2,325.7,-0.8,1.8,2471.241,13.29,0.005,216.9
2022-12-12T08:31:03,42.805,6.029,-0.028,0.032,-0.004,100.0,99.0,102.0,13.3,1505.2,336.2,-0.8,1.8,2471.209,13.29,0.042,318.8
2022-12-12T08:34:03,42.805,6.029,0.0,0.007,-0.02,101.0,100.0,103.0,13.3,1505.2,320.6,-0.8,1.8,2471.229,13.29,0.007,0.0
2022-12-12T08:37:03,42.805,6.029,-0.041,0.022,-0.007,99.0,102.0,101.0,13.4,1505.2,331.5,-0.8,1.8,2471.22,13.29,0.046,298.2
2022-12-12T08:40:03,42.805,6.029,-0.024,0.0,-0.031,101.0,101.0,101.0,13.4,1505.2,330.8,-0.8,1.8,2471.184,13.29,0.024,270.0
2022-12-12T08:43:05,42.805,6.029,-0.026,-0.005,-0.064,100.0,101.0,101.0,13.4,1505.2,324.2,-0.7,1.9,2471.223,13.29,0.026,259.1
2022-12-12T08:46:03,42.805,6.029,-0.007,0.012,0.004,100.0,101.0,100.0,13.4,1505.2,327.0,-0.8,1.8,2471.225,13.29,0.013,329.7
2022-12-12T08:49:03,42.805,6.029,0.012,0.0,0.0,100.0,101.0,101.0,13.4,1505.2,334.5,-0.8,1.8,2471.226,13.29,0.012,90.0
2022-12-12T08:52:03,42.805,6.029,-0.006,-0.003,-0.034,101.0,101.0,100.0,13.4,1505.2,331.0,-0.8,1.8,2471.23,13.29,0.006,243.4
2022-12-12T08:55:03,42.805,6.029,-0.035,0.014,-0.014,101.0,100.0,101.0,13.4,1505.2,327.6,-0.8,1.8,2471.196,13.29,0.037,291.8
2022-12-12T08:58:03,42.805,6.029,-0.029,0.01,-0.012,100.0,101.0,100.0,13.4,1505.2,323.7,-0.7,1.8,2471.25,13.29,0.03,289.0
2022-12-12T09:04:03,42.805,6.029,-0.009,0.003,-0.025,100.0,100.0,100.0,13.4,1505.2,319.6,-0.7,1.9,2471.31,13.29,0.009,288.4
2022-12-12T09:07:03,42.805,6.029,-0.042,0.013,-0.056,100.0,101.0,100.0,13.3,1505.2,327.0,-0.8,1.8,2471.255,13.29,0.043,287.2
2022-12-12T09:10:03,42.805,6.029,-0.034,0.013,-0.041,99.0,101.0,100.0,13.3,1505.2,323.1,-0.7,1.8,2471.301,13.29,0.036,290.9
2022-12-12T09:13:03,42.805,6.029,-0.024,0.025,-0.019,101.0,102.0,100.0,13.3,1505.2,327.6,-0.7,1.8,2471.218,13.29,0.034,316.2
2022-12-12T09:16:03,42.805,6.029,-0.025,0.012,-0.013,101.0,101.0,100.0,13.3,1505.2,319.6,-0.7,1.8,2471.249,13.29,0.027,295.6
2022-12-12T09:19:03,42.805,6.029,-0.021,0.007,-0.029,100.0,99.0,101.0,13.4,1505.2,328.3,-0.8,1.8,2471.247,13.29,0.022,288.4
2022-12-12T09:22:03,42.805,6.029,-0.007,0.027,0.022,100.0,101.0,100.0,13.4,1505.2,329.3,-0.8,1.8,2471.266,13.29,0.027,345.5
2022-12-12T09:25:03,42.805,6.029,-0.034,0.025,-0.006,100.0,103.0,101.0,13.4,1505.2,327.6,-0.8,1.8,2471.299,13.29,0.042,306.3
2022-12-12T09:28:03,42.805,6.029,-0.008,0.007,-0.034,100.0,101.0,101.0,13.4,1505.2,327.7,-0.7,1.8,2471.228,13.29,0.01,311.2
2022-12-12T09:31:03,42.805,6.029,-0.029,0.01,-0.028,102.0,100.0,100.0,13.4,1505.2,328.6,-0.8,1.8,2471.243,13.29,0.03,289.0
2022-12-12T09:34:03,42.805,6.029,-0.041,0.014,-0.022,100.0,101.0,100.0,13.4,1505.2,328.6,-0.8,1.8,2471.261,13.29,0.043,288.9
2022-12-12T09:37:03,42.805,6.029,-0.002,0.02,-0.001,100.0,101.0,101.0,13.3,1505.2,323.1,-0.8,1.8,2471.282,13.29,0.02,354.3
2022-12-12T09:40:03,42.805,6.029,-0.013,0.011,-0.013,100.0,101.0,100.0,13.4,1505.2,336.2,-0.8,1.8,2471.253,13.29,0.017,310.2
2022-12-12T09:43:03,42.805,6.029,-0.026,0.026,0.006,100.0,103.0,101.0,13.3,1505.2,330.1,-0.8,1.8,2471.242,13.29,0.036,315.0
2022-12-12T09:46:03,42.805,6.029,-0.014,0.006,-0.023,101.0,100.0,100.0,13.4,1505.2,330.7,-0.8,1.8,2471.223,13.29,0.015,293.2
2022-12-12T09:49:03,42.805,6.029,-0.001,-0.007,-0.042,102.0,101.0,100.0,13.4,1505.2,327.6,-0.8,1.8,2471.23,13.29,0.007,188.1
2022-12-12T09:52:03,42.805,6.029,-0.019,0.012,-0.004,101.0,101.0,101.0,13.3,1505.2,327.9,-0.7,1.8,2471.286,13.29,0.022,302.3
2022-12-12T09:55:03,42.805,6.029,-0.004,0.001,-0.055,100.0,100.0,101.0,13.4,1505.2,330.5,-0.7,1.8,2471.219,13.29,0.004,284.0